timestamp,wind_dir_avg,wind_spd_avg,wind_spd_max_dir,wind_spd_gust,battery_voltage,lat,long
2020-01-07 00:04:01+00:00,2.0,4.86,4.0,5.78,12.65,47.59359,-54.27349
2020-01-07 00:14:01+00:00,14.0,4.09,16.0,4.74,12.57,47.59359,-54.27349
2020-01-07 00:24:01+00:00,11.0,4.44,15.0,5.91,12.57,47.59359,-54.27349
2020-01-07 00:34:01+00:00,16.0,4.21,15.0,5.55,12.57,47.59359,-54.27349
2020-01-07 00:44:01+00:00,34.0,4.27,39.0,5.1,12.57,47.59359,-54.27349
2020-01-07 00:54:01+00:00,349.0,3.55,357.0,4.55,12.57,47.59359,-54.27349
2020-01-07 01:04:01+00:00,353.0,4.11,352.0,5.05,12.57,47.59359,-54.27349
2020-01-07 01:14:01+00:00,0.0,4.08,359.0,5.01,12.57,47.59359,-54.27349
2020-01-07 01:24:01+00:00,0.0,3.98,11.0,4.95,12.57,47.59359,-54.27349
2020-01-07 01:34:01+00:00,5.0,4.1,10.0,4.69,12.57,47.59359,-54.27349
2020-01-07 01:44:01+00:00,13.0,4.34,13.0,5.55,12.57,47.59359,-54.27349
2020-01-07 01:54:01+00:00,1.0,4.86,5.0,5.68,12.57,47.59359,-54.27349
2020-01-07 02:04:01+00:00,6.0,4.92,5.0,5.7,12.57,47.59359,-54.27349
2020-01-07 02:14:01+00:00,5.0,3.87,357.0,4.67,12.57,47.59359,-54.27349
2020-01-07 02:24:01+00:00,9.0,4.28,2.0,5.45,12.57,47.59359,-54.27349
2020-01-07 02:34:01+00:00,26.0,4.41,30.0,5.05,12.57,47.59359,-54.27349
2020-01-07 02:44:01+00:00,14.0,3.61,17.0,4.53,12.57,47.59359,-54.27349
2020-01-07 02:54:01+00:00,20.0,3.63,22.0,4.67,12.57,47.59359,-54.27349
2020-01-07 03:04:01+00:00,28.0,3.59,34.0,4.48,12.57,47.59359,-54.27349
2020-01-07 03:14:01+00:00,17.0,4.13,14.0,4.75,12.57,47.59359,-54.27349
2020-01-07 03:24:01+00:00,15.0,4.76,15.0,6.27,12.57,47.59359,-54.27349
2020-01-07 03:34:01+00:00,6.0,4.36,4.0,5.17,12.57,47.59359,-54.27349
2020-01-07 03:44:01+00:00,15.0,4.43,11.0,5.33,12.57,47.59359,-54.27349
2020-01-07 03:54:01+00:00,14.0,4.41,14.0,5.12,12.57,47.59359,-54.27349
2020-01-07 04:04:01+00:00,18.0,4.79,17.0,5.44,12.57,47.59359,-54.27349
2020-01-07 04:14:01+00:00,18.0,5.05,17.0,5.76,12.49,47.59359,-54.27349
2020-01-07 04:24:01+00:00,31.0,4.02,32.0,4.86,12.49,47.59359,-54.27349
2020-01-07 04:34:01+00:00,12.0,4.63,5.0,5.63,12.49,47.59359,-54.27349
2020-01-07 04:44:01+00:00,16.0,4.82,15.0,5.72,12.49,47.59359,-54.27349
2020-01-07 04:54:01+00:00,36.0,4.21,41.0,5.09,12.49,47.59359,-54.27349
2020-01-07 05:04:01+00:00,44.0,4.13,46.0,4.52,12.49,47.59359,-54.27349
2020-01-07 05:14:01+00:00,56.0,3.6,63.0,4.83,12.49,47.59359,-54.27349
2020-01-07 05:24:01+00:00,54.0,4.47,58.0,5.18,12.49,47.59359,-54.27349
2020-01-07 05:34:01+00:00,51.0,4.51,50.0,5.23,12.49,47.59359,-54.27349
2020-01-07 05:44:01+00:00,54.0,4.67,59.0,5.57,12.49,47.59359,-54.27349
2020-01-07 05:54:01+00:00,48.0,4.64,45.0,5.53,12.49,47.59359,-54.27349
2020-01-07 06:04:01+00:00,57.0,4.28,64.0,4.94,12.49,47.59359,-54.27349
2020-01-07 06:14:01+00:00,43.0,4.62,40.0,5.22,12.49,47.59359,-54.27349
2020-01-07 06:24:01+00:00,28.0,4.68,27.0,6.1,12.49,47.59359,-54.27349
2020-01-07 06:34:01+00:00,28.0,4.69,29.0,5.59,12.49,47.59359,-54.27349
2020-01-07 06:44:01+00:00,27.0,4.69,28.0,5.68,12.49,47.59359,-54.27349
2020-01-07 06:54:01+00:00,41.0,4.39,43.0,5.16,12.49,47.59359,-54.27349
2020-01-07 07:04:01+00:00,34.0,3.91,30.0,4.9,12.49,47.59359,-54.27349
2020-01-07 07:14:01+00:00,36.0,4.12,32.0,5.11,12.49,47.59359,-54.27349
2020-01-07 07:24:01+00:00,33.0,3.94,49.0,4.81,12.49,47.59359,-54.27349
2020-01-07 07:34:01+00:00,50.0,4.2,45.0,5.31,12.49,47.59359,-54.27349
2020-01-07 07:44:01+00:00,41.0,3.52,35.0,4.68,12.49,47.59359,-54.27349
2020-01-07 07:54:01+00:00,51.0,3.77,54.0,4.8,12.49,47.59359,-54.27349
2020-01-07 08:04:01+00:00,57.0,4.71,60.0,5.32,12.49,47.59359,-54.27349
2020-01-07 08:14:01+00:00,59.0,4.17,59.0,4.71,12.49,47.59359,-54.27349
2020-01-07 08:24:01+00:00,56.0,3.86,55.0,4.43,12.49,47.59359,-54.27349
2020-01-07 08:34:01+00:00,43.0,4.43,47.0,5.03,12.49,47.59359,-54.27349
2020-01-07 08:44:01+00:00,46.0,4.32,38.0,4.76,12.49,47.59359,-54.27349
2020-01-07 08:54:01+00:00,54.0,4.25,50.0,5.14,12.49,47.59359,-54.27349
2020-01-07 09:04:01+00:00,70.0,3.23,79.0,4.28,12.49,47.59359,-54.27349
2020-01-07 09:14:01+00:00,87.0,3.38,84.0,3.97,12.49,47.59359,-54.27349
2020-01-07 09:24:01+00:00,76.0,2.63,62.0,3.38,12.49,47.59359,-54.27349
2020-01-07 09:34:01+00:00,60.0,3.35,58.0,3.89,12.49,47.59359,-54.27349
2020-01-07 09:44:01+00:00,57.0,3.81,55.0,4.4,12.49,47.59359,-54.27349
2020-01-07 09:54:01+00:00,52.0,3.38,52.0,4.32,12.49,47.59359,-54.27349
2020-01-07 10:04:01+00:00,75.0,2.51,71.0,3.25,12.49,47.59359,-54.27349
2020-01-07 10:14:01+00:00,90.0,2.72,87.0,3.48,12.41,47.59359,-54.27349
2020-01-07 10:24:01+00:00,74.0,2.89,75.0,3.41,12.41,47.59359,-54.27349
2020-01-07 10:34:01+00:00,82.0,2.63,77.0,3.52,12.41,47.59359,-54.27349
2020-01-07 10:44:01+00:00,100.0,2.12,108.0,2.94,12.41,47.59359,-54.27349
2020-01-07 10:54:01+00:00,95.0,1.77,90.0,2.3,12.41,47.59359,-54.27349
2020-01-07 11:04:01+00:00,95.0,1.29,103.0,1.68,12.41,47.59359,-54.27349
2020-01-07 11:14:01+00:00,92.0,1.74,98.0,2.29,12.41,47.59359,-54.27349
2020-01-07 11:24:01+00:00,85.0,2.22,82.0,2.62,12.41,47.59359,-54.27349
2020-01-07 11:34:01+00:00,66.0,2.06,64.0,2.49,12.41,47.59359,-54.27349
2020-01-07 11:44:01+00:00,65.0,2.45,65.0,3.17,12.41,47.59359,-54.27349
2020-01-07 11:54:01+00:00,76.0,2.57,79.0,3.58,12.41,47.59359,-54.27349
2020-01-07 12:04:01+00:00,98.0,2.16,94.0,2.94,12.41,47.59359,-54.27349
2020-01-07 12:14:01+00:00,61.0,3.28,57.0,3.8,12.57,47.59359,-54.27349
2020-01-07 12:24:01+00:00,80.0,3.41,80.0,3.81,12.57,47.59359,-54.27349
2020-01-07 12:34:01+00:00,98.0,2.66,95.0,3.45,12.57,47.59359,-54.27349
2020-01-07 12:44:01+00:00,104.0,1.64,96.0,2.63,12.57,47.59359,-54.27349
2020-01-07 12:54:01+00:00,112.0,1.48,124.0,2.32,12.57,47.59359,-54.27349
2020-01-07 13:04:01+00:00,112.0,1.2,122.0,1.76,12.57,47.59359,-54.27349
2020-01-07 13:14:01+00:00,112.0,1.8,99.0,2.43,13.13,47.59359,-54.27349
2020-01-07 13:24:01+00:00,77.0,2.04,88.0,2.57,13.13,47.59359,-54.27349
2020-01-07 13:34:01+00:00,85.0,1.62,80.0,2.02,13.13,47.59359,-54.27349
2020-01-07 13:44:01+00:00,83.0,2.21,83.0,2.65,13.13,47.59359,-54.27349
2020-01-07 13:54:01+00:00,87.0,1.94,92.0,2.29,13.13,47.59359,-54.27349
2020-01-07 14:04:01+00:00,55.0,3.25,56.0,3.67,13.13,47.59359,-54.27349
2020-01-07 14:14:01+00:00,0.0,1.98,353.0,3.44,13.76,47.59359,-54.27349
2020-01-07 14:24:01+00:00,327.0,4.13,324.0,4.69,13.76,47.59359,-54.27349
2020-01-07 14:34:01+00:00,356.0,4.04,357.0,4.83,13.76,47.59359,-54.27349
2020-01-07 14:44:01+00:00,357.0,3.75,1.0,4.22,13.76,47.59359,-54.27349
2020-01-07 14:54:01+00:00,357.0,3.42,0.0,3.74,13.76,47.59359,-54.27349
2020-01-07 15:04:01+00:00,1.0,2.93,359.0,3.35,13.76,47.59359,-54.27349
2020-01-07 15:14:01+00:00,6.0,3.13,9.0,3.54,13.68,47.59359,-54.27349
2020-01-07 15:24:01+00:00,15.0,3.08,20.0,3.64,13.68,47.59359,-54.27349
2020-01-07 15:34:01+00:00,25.0,2.21,14.0,2.9,13.68,47.59359,-54.27349
2020-01-07 15:44:01+00:00,11.0,2.28,19.0,2.65,13.68,47.59359,-54.27349
2020-01-07 15:54:01+00:00,4.0,2.11,1.0,2.57,13.68,47.59359,-54.27349
2020-01-07 16:04:01+00:00,352.0,1.69,343.0,2.17,13.68,47.59359,-54.27349
2020-01-07 16:14:01+00:00,342.0,1.08,356.0,1.59,13.53,47.59359,-54.27349
2020-01-07 16:24:01+00:00,13.0,0.8,7.0,1.23,13.53,47.59359,-54.27349
2020-01-07 16:34:01+00:00,310.0,0.95,317.0,1.32,13.53,47.59359,-54.27349
2020-01-07 16:44:01+00:00,296.0,2.53,286.0,3.11,13.53,47.59359,-54.27349
2020-01-07 16:54:01+00:00,277.0,2.55,282.0,2.93,13.53,47.59359,-54.27349
2020-01-07 17:04:01+00:00,278.0,3.96,278.0,4.56,13.53,47.59359,-54.27349
2020-01-07 17:14:01+00:00,294.0,2.53,293.0,3.08,13.6,47.59359,-54.27349
2020-01-07 17:24:01+00:00,316.0,1.61,312.0,2.16,13.6,47.59359,-54.27349
2020-01-07 17:34:01+00:00,313.0,2.45,319.0,2.98,13.6,47.59359,-54.27349
2020-01-07 17:44:01+00:00,336.0,1.29,328.0,1.72,13.6,47.59359,-54.27349
2020-01-07 17:54:01+00:00,308.0,1.3,305.0,1.54,13.6,47.59359,-54.27349
2020-01-07 18:04:01+00:00,334.0,2.3,342.0,3.35,13.6,47.59359,-54.27349
2020-01-07 18:14:01+00:00,296.0,2.28,292.0,2.71,13.6,47.59359,-54.27349
2020-01-07 18:24:01+00:00,304.0,1.96,317.0,2.63,13.6,47.59359,-54.27349
2020-01-07 18:34:01+00:00,282.0,2.64,283.0,3.1,13.6,47.59359,-54.27349
2020-01-07 18:44:01+00:00,296.0,2.27,290.0,2.96,13.6,47.59359,-54.27349
2020-01-07 18:54:01+00:00,90.0,0.21,118.0,0.75,13.6,47.59359,-54.27349
2020-01-07 19:04:01+00:00,162.0,1.87,170.0,2.23,13.6,47.59359,-54.27349
2020-01-07 19:14:01+00:00,194.0,1.89,198.0,3.0,13.21,47.59359,-54.27349
2020-01-07 19:24:01+00:00,226.0,0.72,237.0,1.03,13.21,47.59359,-54.27349
2020-01-07 19:34:01+00:00,203.0,1.03,196.0,1.31,13.21,47.59359,-54.27349
2020-01-07 19:44:01+00:00,206.0,0.71,215.0,1.14,13.21,47.59359,-54.27349
2020-01-07 19:54:01+00:00,243.0,1.61,236.0,2.04,13.21,47.59359,-54.27349
2020-01-07 20:04:01+00:00,230.0,1.47,243.0,2.11,13.21,47.59359,-54.27349
2020-01-07 20:14:01+00:00,253.0,1.61,258.0,2.28,12.81,47.59359,-54.27349
2020-01-07 20:24:01+00:00,254.0,1.1,239.0,1.43,12.81,47.59359,-54.27349
2020-01-07 20:34:01+00:00,243.0,2.26,234.0,2.79,12.81,47.59359,-54.27349
2020-01-07 20:44:01+00:00,221.0,2.92,227.0,3.36,12.81,47.59359,-54.27349
2020-01-07 20:54:01+00:00,257.0,3.14,260.0,4.47,12.81,47.59359,-54.27349
2020-01-07 21:04:01+00:00,242.0,3.25,242.0,4.04,12.81,47.59359,-54.27349
2020-01-07 21:14:01+00:00,245.0,4.24,267.0,6.34,12.73,47.59359,-54.27349
2020-01-07 21:24:01+00:00,237.0,3.75,244.0,4.25,12.73,47.59359,-54.27349
2020-01-07 21:34:01+00:00,245.0,3.2,244.0,3.56,12.73,47.59359,-54.27349
2020-01-07 21:44:01+00:00,221.0,4.1,223.0,4.74,12.73,47.59359,-54.27349
2020-01-07 21:54:01+00:00,232.0,3.67,238.0,4.21,12.73,47.59359,-54.27349
2020-01-07 22:04:01+00:00,209.0,4.56,210.0,6.75,12.73,47.59359,-54.27349
2020-01-07 22:14:01+00:00,201.0,4.77,204.0,5.58,12.65,47.59359,-54.27349
2020-01-07 22:24:01+00:00,197.0,5.25,192.0,5.91,12.65,47.59359,-54.27349
2020-01-07 22:34:01+00:00,209.0,4.76,207.0,5.4,12.65,47.59359,-54.27349
2020-01-07 22:44:01+00:00,206.0,4.93,201.0,5.99,12.65,47.59359,-54.27349
2020-01-07 22:54:01+00:00,209.0,4.7,200.0,5.19,12.65,47.59359,-54.27349
2020-01-07 23:04:01+00:00,222.0,5.4,230.0,6.62,12.65,47.59359,-54.27349
2020-01-07 23:14:01+00:00,246.0,5.25,249.0,6.16,12.65,47.59359,-54.27349
2020-01-07 23:24:01+00:00,239.0,4.48,234.0,5.33,12.65,47.59359,-54.27349
2020-01-07 23:34:01+00:00,242.0,5.2,243.0,6.69,12.65,47.59359,-54.27349
2020-01-07 23:44:01+00:00,232.0,6.84,235.0,8.24,12.65,47.59359,-54.27349
2020-01-07 23:54:01+00:00,239.0,5.0,243.0,6.04,12.65,47.59359,-54.27349
